D8954 Weather Reports


Display with metric or nautical units.
time (UTC)temp
F
wind
direction
speed
MPH
gust
MPH
rain 1hr
in
rain 24hr
in
rain mn
in
humidity
%
barometer
mb
20260507113005 49 296 1.0 3.0 0.00 0.55 0.38 87 1014.4
20260507112006 49 230 1.0 7.0 0.00 0.55 0.38 85 1014.3
20260507111506 50 208 2.0 7.0 0.00 0.55 0.38 85 1014.3
20260507110505 50 210 3.0 5.0 0.00 0.55 0.38 86 1014.2
20260507110006 50 214 2.0 3.0 0.00 0.55 0.38 87 1014.2
20260507105504 49 232 1.0 6.0 0.00 0.55 0.38 86 1014.2
20260507105006 49 258 2.0 8.0 0.00 0.55 0.38 87 1014.1
20260507104506 49 298 1.0 3.0 0.00 0.55 0.38 88 1014.1
20260507104005 49 206 1.0 3.0 0.00 0.55 0.38 88 1014.0
20260507103504 48 204 3.0 5.0 0.00 0.55 0.38 89 1014.0
20260507103005 48 236 1.0 3.0 0.00 0.55 0.38 88 1014.1
20260507102504 48 294 3.0 7.0 0.00 0.55 0.38 88 1014.1
20260507101506 47 313 1.0 5.0 0.00 0.55 0.38 88 1014.0
20260507101005 47 296 2.0 3.0 0.00 0.55 0.38 88 1014.0
20260507095505 47 330 2.0 5.0 0.00 0.55 0.38 88 1013.9
20260507095005 48 318 2.0 7.0 0.00 0.55 0.38 88 1013.8
20260507094504 48 9 2.0 3.0 0.00 0.55 0.38 88 1013.8
20260507094006 48 301 2.0 3.0 0.00 0.55 0.38 88 1013.7
20260507093505 48 302 2.0 7.0 0.00 0.55 0.38 88 1013.6
20260507093005 48 318 1.0 5.0 0.00 0.55 0.38 89 1013.6
20260507092505 48 313 0.0 3.0 0.00 0.55 0.38 89 1013.6
20260507092005 47 340 1.0 5.0 0.00 0.55 0.38 88 1013.5
20260507091505 47 320 1.0 3.0 0.00 0.55 0.38 88 1013.4
20260507091005 47 273 2.0 7.0 0.00 0.55 0.38 89 1013.4
20260507090505 47 319 2.0 3.0 0.00 0.55 0.38 89 1013.2
20260507090006 47 299 3.0 7.0 0.00 0.55 0.38 89 1013.2
20260507085504 47 346 2.0 10.0 0.00 0.55 0.38 89 1013.2
20260507085005 47 340 3.0 7.0 0.00 0.55 0.38 89 1013.2
20260507084505 47 315 1.0 6.0 0.00 0.55 0.38 89 1013.1
20260507084005 47 1 1.0 6.0 0.00 0.55 0.38 89 1013.1
20260507083504 46 339 5.0 9.0 0.00 0.55 0.38 89 1013.0
20260507083005 47 347 3.0 7.0 0.00 0.55 0.38 89 1013.0
20260507082504 47 330 2.0 6.0 0.00 0.55 0.38 89 1013.0
20260507082005 47 6 5.0 10.0 0.00 0.55 0.38 89 1012.9
20260507081505 47 329 2.0 7.0 0.00 0.55 0.38 89 1012.8
20260507081005 47 311 1.0 3.0 0.00 0.55 0.38 89 1012.8
20260507080505 47 317 3.0 5.0 0.00 0.55 0.38 89 1012.7
20260507080005 47 250 1.0 3.0 0.00 0.55 0.38 89 1012.7
20260507075504 47 315 3.0 3.0 0.00 0.55 0.38 89 1012.7
20260507075005 47 353 2.0 3.0 0.01 0.55 0.38 89 1012.6
20260507074505 47 300 3.0 3.0 0.01 0.55 0.38 90 1012.4
20260507074005 47 342 1.0 3.0 0.01 0.55 0.38 90 1012.4
20260507073505 47 333 1.0 7.0 0.01 0.55 0.38 90 1012.4
20260507073005 47 263 1.0 3.0 0.02 0.55 0.38 90 1012.3
20260507072505 47 330 2.0 6.0 0.02 0.55 0.38 90 1012.3
20260507072004 47 340 1.0 3.0 0.02 0.55 0.38 90 1012.2
20260507071504 47 279 0.0 3.0 0.02 0.55 0.38 90 1012.1
20260507071005 46 317 1.0 3.0 0.02 0.55 0.38 90 1012.1
20260507070009 46 313 2.0 7.0 0.04 0.55 0.38 90 1012.0
20260507065005 47 336 1.0 2.0 0.03 0.54 0.37 90 1011.9
20260507064505 47 265 1.0 3.0 0.04 0.54 0.37 90 1011.8
20260507064005 46 274 3.0 7.0 0.04 0.54 0.37 90 1011.9
20260507063504 46 340 1.0 6.0 0.04 0.54 0.37 90 1011.8
20260507063005 46 278 1.0 5.0 0.04 0.54 0.36 90 1011.8
20260507062504 46 321 2.0 3.0 0.04 0.54 0.36 90 1011.8
20260507062005 46 316 2.0 3.0 0.04 0.54 0.36 91 1011.8
20260507061505 46 24 2.0 3.0 0.03 0.53 0.35 90 1011.6
20260507061004 46 355 1.0 2.0 0.03 0.53 0.35 90 1011.6
20260507060504 46 313 1.0 2.0 0.02 0.52 0.35 91 1011.5
20260507055505 46 254 0.0 2.0 0.02 0.51 0.34 91 1011.3
20260507055004 46 254 2.0 3.0 0.02 0.51 0.34 91 1011.2
20260507054005 46 320 0.0 2.0 0.02 0.50 0.33 91 1011.2
20260507052505 46 321 1.0 3.0 0.02 0.50 0.32 90 1011.0
20260507052005 46 6 2.0 5.0 0.02 0.50 0.32 90 1011.0
20260507051504 46 336 2.0 7.0 0.02 0.50 0.32 90 1010.9
20260507051004 46 327 3.0 10.0 0.02 0.50 0.32 90 1010.8
20260507050504 46 346 2.0 3.0 0.02 0.50 0.32 90 1010.7
20260507050006 46 285 1.0 3.0 0.02 0.50 0.32 90 1010.5
20260507045505 46 316 1.0 3.0 0.02 0.49 0.31 90 1010.5
20260507045004 46 236 1.0 3.0 0.02 0.49 0.31 90 1010.5
20260507044505 46 290 0.0 1.0 0.02 0.49 0.31 90 1010.4
20260507044005 46 292 1.0 3.0 0.02 0.49 0.31 90 1010.4
20260507043509 46 265 1.0 3.0 0.02 0.48 0.31 90 1010.3
20260507042504 46 286 1.0 5.0 0.02 0.48 0.31 90 1010.1
20260507042005 46 6 1.0 3.0 0.02 0.48 0.31 90 1010.1
20260507041005 46 196 1.0 2.0 0.02 0.48 0.31 91 1010.0
20260507040504 46 281 1.0 6.0 0.02 0.47 0.30 91 1010.0
20260507040009 46 330 3.0 5.0 0.02 0.47 0.30 90 1010.0
20260507035504 46 337 3.0 6.0 0.02 0.47 0.30 91 1009.9
20260507035005 46 295 2.0 8.0 0.02 0.47 0.30 90 1009.8
20260507034505 46 228 1.0 3.0 0.02 0.47 0.30 91 1009.8
20260507034005 46 223 2.0 8.0 0.02 0.46 0.29 90 1009.7
20260507033505 46 299 2.0 5.0 0.02 0.46 0.29 90 1009.7
20260507033004 47 224 2.0 9.0 0.03 0.46 0.29 90 1009.6
20260507032504 47 300 2.0 5.0 0.04 0.46 0.29 90 1009.6
20260507032004 47 323 1.0 3.0 0.05 0.46 0.29 90 1009.6
20260507031504 47 316 1.0 6.0 0.06 0.46 0.29 90 1009.5
20260507030505 47 330 3.0 6.0 0.06 0.46 0.28 90 1009.4
20260507030005 47 336 3.0 6.0 0.06 0.46 0.28 90 1009.4
20260507025504 47 324 2.0 3.0 0.06 0.46 0.28 90 1009.3
20260507025005 47 277 2.0 3.0 0.06 0.45 0.28 90 1009.3
20260507024005 47 299 1.0 5.0 0.05 0.44 0.27 90 1009.4
20260507023505 47 248 1.0 3.0 0.05 0.44 0.27 90 1009.3
20260507023005 47 264 1.0 3.0 0.04 0.43 0.26 90 1009.3
20260507022504 47 339 2.0 3.0 0.03 0.43 0.25 90 1009.1
20260507022004 47 331 3.0 5.0 0.02 0.42 0.24 90 1009.1
20260507021504 47 278 1.0 3.0 0.02 0.41 0.24 90 1009.0
20260507021005 47 304 2.0 5.0 0.01 0.40 0.23 90 1009.0
20260507020005 48 254 2.0 3.0 0.00 0.39 0.22 90 1008.9
20260507015005 48 318 1.0 3.0 0.01 0.39 0.22 90 1008.9
20260507014504 48 263 2.0 6.0 0.01 0.39 0.22 90 1008.9
20260507014004 48 308 2.0 3.0 0.01 0.39 0.22 90 1008.9
20260507013505 48 247 0.0 2.0 0.01 0.39 0.22 90 1008.8
20260507012505 48 295 2.0 6.0 0.02 0.39 0.22 90 1008.7
20260507012005 48 0 3.0 5.0 0.02 0.39 0.22 90 1008.7
20260507011504 48 322 1.0 5.0 0.02 0.39 0.22 90 1008.6
20260507010505 48 351 4.0 8.0 0.03 0.39 0.22 90 1008.6
20260507010005 48 312 2.0 6.0 0.04 0.39 0.22 90 1008.7
20260507004005 48 262 2.0 5.0 0.04 0.39 0.21 90 1008.6
20260507003504 48 324 2.0 5.0 0.05 0.39 0.21 89 1008.6
20260507003005 48 257 0.0 3.0 0.05 0.39 0.21 90 1008.6
20260507002505 48 302 1.0 3.0 0.05 0.38 0.20 90 1008.6
20260507000505 48 335 3.0 8.0 0.05 0.36 0.19 90 1008.7
20260507000006 49 329 2.0 6.0 0.05 0.35 0.18 90 1008.7
20260506235004 49 313 2.0 6.0 0.06 0.35 0.17 90 1008.7
20260506234504 49 325 0.0 3.0 0.06 0.35 0.17 90 1008.6
20260506234004 49 327 2.0 3.0 0.07 0.35 0.17 90 1008.7
20260506233505 49 23 2.0 3.0 0.08 0.35 0.17 90 1008.6
20260506233005 49 294 1.0 5.0 0.09 0.35 0.17 90 1008.5
20260506232504 49 338 2.0 3.0 0.10 0.34 0.16 90 1008.6
20260506232005 49 314 2.0 3.0 0.11 0.33 0.15 90 1008.5
20260506231505 49 331 1.0 3.0 0.13 0.33 0.15 90 1008.5
20260506231005 49 337 2.0 5.0 0.13 0.32 0.14 90 1008.4
20260506230504 50 301 2.0 3.0 0.13 0.32 0.14 90 1008.3
20260506230005 50 330 3.0 6.0 0.13 0.31 0.13 90 1008.3
20260506224504 50 316 2.0 5.0 0.13 0.29 0.11 90 1008.2
20260506223005 50 284 2.0 6.0 0.12 0.26 0.07 89 1008.1
20260506221504 50 306 1.0 3.0 0.09 0.24 0.02 89 1007.9
20260506221004 51 277 2.0 6.0 0.09 0.24 0.02 89 1007.9
20260506220005 51 307 2.0 3.0 0.09 0.24 0.00 89 1007.8
20260506215504 51 5 2.0 5.0 0.08 0.24 0.24 89 1007.7
20260506215006 51 304 2.0 8.0 0.07 0.24 0.23 89 1007.7
20260506214505 51 343 1.0 5.0 0.07 0.25 0.22 89 1007.6
20260506214005 51 300 3.0 8.0 0.06 0.24 0.21 89 1007.7
20260506213004 52 299 2.0 3.0 0.05 0.23 0.20 89 1007.5
20260506212504 52 334 2.0 3.0 0.05 0.24 0.20 89 1007.5
20260506211504 52 309 2.0 3.0 0.04 0.23 0.19 89 1007.4
20260506211004 52 260 1.0 3.0 0.03 0.22 0.18 89 1007.3
20260506210504 52 252 0.0 2.0 0.02 0.20 0.17 89 1007.3
20260506210005 52 259 0.0 2.0 0.01 0.20 0.16 89 1007.2
20260506205504 52 259 1.0 2.0 0.01 0.20 0.16 89 1007.3
20260506205003 52 283 1.0 3.0 0.02 0.20 0.16 89 1007.3
20260506203504 53 229 1.0 2.0 0.02 0.19 0.15 89 1007.2
20260506203004 53 230 1.0 3.0 0.03 0.19 0.15 89 1007.1
20260506202504 53 228 0.0 2.0 0.03 0.19 0.15 89 1007.1
20260506202004 53 228 0.0 2.0 0.03 0.19 0.15 89 1007.1
20260506201004 53 228 0.0 1.0 0.03 0.19 0.15 89 1007.0
20260506200504 53 228 0.0 3.0 0.04 0.19 0.15 89 1007.0
20260506200005 53 211 1.0 2.0 0.05 0.19 0.15 89 1007.0
20260506195504 53 211 1.0 2.0 0.05 0.19 0.15 89 1006.9
20260506195004 53 210 1.0 2.0 0.05 0.18 0.14 88 1006.8
20260506194504 53 209 1.0 2.0 0.05 0.17 0.13 88 1006.8
20260506194004 53 210 0.0 2.0 0.06 0.17 0.13 88 1006.8
20260506193504 53 139 1.0 2.0 0.06 0.17 0.13 88 1006.7
20260506193004 53 224 1.0 3.0 0.05 0.16 0.12 88 1006.6
20260506192504 53 226 1.0 2.0 0.05 0.16 0.12 88 1006.6
20260506192004 53 227 1.0 3.0 0.05 0.16 0.12 88 1006.5
20260506191504 53 232 0.0 1.0 0.05 0.16 0.12 87 1006.4
20260506191004 53 233 1.0 3.0 0.05 0.16 0.12 87 1006.3
20260506190504 53 252 2.0 5.0 0.04 0.15 0.11 87 1006.3
20260506190006 53 231 2.0 5.0 0.03 0.14 0.10 86 1006.3
20260506185504 53 222 1.0 3.0 0.03 0.14 0.10 86 1006.3
20260506185004 54 258 0.0 2.0 0.02 0.13 0.09 85 1006.3
20260506184004 55 286 2.0 6.0 0.00 0.11 0.07 81 1006.1
20260506183504 55 212 1.0 3.0 0.00 0.11 0.07 79 1006.0
20260506183005 55 224 3.0 6.0 0.00 0.11 0.07 79 1005.9
20260506182504 56 211 5.0 7.0 0.00 0.11 0.07 78 1005.8
20260506182004 56 214 2.0 6.0 0.00 0.11 0.07 78 1005.9
20260506181504 56 219 3.0 7.0 0.00 0.11 0.07 77 1005.8
20260506180504 56 211 3.0 5.0 0.00 0.11 0.07 77 1005.7
20260506180006 56 203 3.0 8.0 0.00 0.11 0.07 77 1005.6
20260506175504 57 225 3.0 7.0 0.00 0.11 0.07 76 1005.6
20260506175005 57 205 3.0 9.0 0.00 0.11 0.07 76 1005.5
20260506174503 57 218 5.0 8.0 0.00 0.11 0.07 75 1005.4
20260506173504 57 218 5.0 8.0 0.00 0.11 0.07 75 1005.3
20260506173005 57 211 5.0 7.0 0.00 0.11 0.07 74 1005.3
20260506172504 58 200 5.0 7.0 0.00 0.11 0.07 75 1005.2
20260506172004 58 213 6.0 8.0 0.00 0.11 0.07 74 1005.2
20260506171503 58 216 5.0 8.0 0.00 0.12 0.07 74 1005.1
20260506171004 58 208 5.0 12.0 0.00 0.12 0.07 73 1005.1
20260506170504 59 215 6.0 12.0 0.00 0.12 0.07 72 1005.0
20260506170004 59 212 5.0 12.0 0.00 0.12 0.07 70 1004.9
20260506165504 59 199 2.0 5.0 0.00 0.12 0.07 70 1004.9
20260506165004 59 213 2.0 3.0 0.00 0.12 0.07 69 1004.8
20260506164003 59 213 2.0 5.0 0.00 0.12 0.07 69 1004.9
20260506163503 59 212 2.0 6.0 0.00 0.13 0.07 68 1005.0
20260506163004 60 227 3.0 6.0 0.00 0.13 0.07 69 1004.9
20260506162504 60 224 4.0 8.0 0.00 0.13 0.07 68 1005.0
20260506162004 60 223 4.0 8.0 0.00 0.14 0.07 68 1005.1
20260506161504 60 229 3.0 9.0 0.00 0.14 0.07 67 1005.1
20260506160504 60 208 4.0 6.0 0.00 0.15 0.07 66 1005.1
20260506160004 60 205 3.0 7.0 0.00 0.16 0.07 67 1005.2
20260506155004 61 220 4.0 10.0 0.00 0.17 0.07 65 1005.1
20260506154504 61 214 3.0 6.0 0.00 0.18 0.07 64 1005.1
20260506153004 61 226 3.0 6.0 0.00 0.20 0.07 64 1005.1
20260506152504 61 221 5.0 7.0 0.00 0.20 0.07 65 1005.0
20260506152004 61 226 4.0 10.0 0.00 0.21 0.07 64 1005.0
20260506151003 62 209 5.0 7.0 0.00 0.22 0.07 64 1005.0
20260506150504 62 221 5.0 9.0 0.00 0.23 0.07 64 1004.8
20260506150005 62 247 2.0 6.0 0.00 0.24 0.07 64 1004.8
20260506145503 62 273 1.0 6.0 0.00 0.25 0.07 63 1004.7
20260506144504 62 185 5.0 8.0 0.00 0.28 0.07 62 1004.7
20260506144004 62 253 4.0 9.0 0.00 0.28 0.07 60 1004.8
20260506143503 62 222 6.0 9.0 0.00 0.30 0.07 62 1004.7
20260506143004 63 226 5.0 9.0 0.00 0.31 0.07 61 1004.7
20260506142504 63 226 3.0 9.0 0.00 0.31 0.07 61 1004.7
20260506142004 63 214 1.0 6.0 0.00 0.31 0.07 64 1004.7
20260506141503 64 214 4.0 10.0 0.00 0.31 0.07 62 1004.7
20260506141004 64 182 3.0 9.0 0.00 0.31 0.07 60 1004.7
20260506140504 65 5 2.0 9.0 0.00 0.31 0.07 60 1004.6
20260506140004 64 206 5.0 7.0 0.00 0.31 0.07 61 1004.7
20260506135504 63 184 4.0 12.0 0.00 0.31 0.07 62 1004.7
20260506134505 64 204 5.0 8.0 0.00 0.31 0.07 62 1004.8
20260506133004 63 303 2.0 5.0 0.00 0.31 0.07 65 1004.9
20260506132504 63 214 5.0 8.0 0.00 0.31 0.07 64 1004.9
20260506132005 63 219 5.0 10.0 0.00 0.31 0.07 62 1005.0
20260506131504 63 255 4.0 10.0 0.00 0.31 0.07 63 1004.9
20260506131004 63 171 3.0 8.0 0.00 0.31 0.07 64 1004.8
20260506130503 63 205 3.0 7.0 0.00 0.31 0.07 64 1004.8
20260506125006 64 344 1.0 5.0 0.00 0.31 0.07 65 1004.8
20260506124506 64 233 3.0 7.0 0.00 0.31 0.07 62 1004.8
20260506124005 64 357 2.0 12.0 0.00 0.31 0.07 64 1004.7
20260506123506 63 310 2.0 6.0 0.00 0.31 0.07 63 1004.7
20260506122506 63 209 5.0 10.0 0.00 0.31 0.07 65 1004.8
20260506122006 62 198 6.0 9.0 0.00 0.31 0.07 66 1004.9
20260506121506 62 233 5.0 12.0 0.00 0.31 0.07 65 1004.9
20260506121006 63 207 3.0 9.0 0.00 0.31 0.07 65 1004.9
20260506120506 63 210 3.0 8.0 0.00 0.31 0.07 64 1005.0
20260506115006 63 327 2.0 9.0 0.00 0.31 0.07 68 1005.0
20260506114505 63 187 3.0 9.0 0.00 0.31 0.07 64 1005.0
20260506114006 63 194 1.0 6.0 0.00 0.31 0.07 67 1005.0
20260506113505 62 329 6.0 12.0 0.00 0.31 0.07 67 1005.0